Find Starlink 1338

NORAD ID: 45532 Int'l Des: 2020-025 Owner: SPXS Country: US Constellation: starlink operational
LEOCIRCULAR

リアルタイム位置

3D地球を読み込み中...

Starlink 1338について

説明を読み込み中...

次回通過

Passes for default location (London). Set your location on the main map for personalized predictions.

高度履歴

Loading altitude history...

軌道要素

1 45532U 20025B 26123.87354438 .00047635 00000-0 48583-3 0 9990
2 45532 53.0441 176.0366 0004045 2.7768 357.3268 15.64626765334013
Epoch: May 3, 2026 • Age: 26 hours

現在のステータス

高度 390.0 km
速度 7.67 km/s
衛星直下点 -42.87°S, 165.6°W
打ち上げ日 Apr 22, 2020
運用期間 6 years
タイプ internet

技術仕様

分類 Payload
質量 260.00 kg
乾燥質量 248.00 kg
総質量 260.00 kg
長さ 0.20 m
直径 2.80 m
スパン 9.00 m
形状 Box + pan
製造者 SPXS
バスタイプ Starlink
フェーズステータス In Orbit
所有者/国 SPXS/US

Most Searched